DECAYED

STARLINK-2010, 47634 (Decayed)

Orbit data source: Space-Track

STARLINK-2010, 47634 was a payload satellite owned by SpaceX/Seattle (US) in LEO that was launched on Tue, 16 Feb 2021 UTC via an FALCON 9 launch vehicle from the Air Force Eastern Test Range (AFETR). Payload-class satellites include a variety of spacecraft equipped with specific instruments for various scientific and technological missions. These include communications satellites like Starlink; space stations such as the ISS; scientific satellites like the Hubble; Earth observation satellites from companies like Planet Labs, Umbra, and HawkEye 360; GPS; miniature CubeSats for education and research; and military/defense satellites.

Not visible in the next 10 days
Identifier
47634, 2021-012Q
Orbit
Decayed
Country
Flag of USUS
Related business
Manufacturer
SpaceX/Seattle
Mission
Decayed Commercial Communications
Bus & Motor
STARLINK, Unknown motor
Mass
260 kg wet, ~248 kg dry
Launch date (UTC)
2021-02-16 (5 years ago)
Launch vehicle
FALCON 9
Launch site
Air Force Eastern Test Range (AFETR)
Object type
Payload
Rocket body
Debris
Shape & HBR
Box + 1 Pan, 10.1 m
Radar Cross Section
13.562 m², Large (>1 m²)

Expand to show TLE details & history
Last TLE update: 1 year ago

TLE from 1 year ago
0 STARLINK-2010
1 47634U 21012Q   25166.51484087  .11143751  12457-4  57100-3 0  9999
2 47634  53.0341 156.5851 0002396 296.7176 160.8124 16.42782429239675
Epoch: 2025-06-15T12:21Z
TLE epoch observation values (Epoch: 2025-06-15T12:21:22.251Z)
Latitude
52.53925°
Longitude
169.62984°
Altitude
166.221 km
Speed
7.812 km/s
True Right ascension
17h 16m 02s
True Declination
52° 21' 29"
Sunlit
Object was in full shadow at epoch
Visualization orbit readout
Latitude
Unknown
Longitude
Unknown
Altitude
Unknown
Speed
Unknown
Apparent Right ascension
Unknown
Apparent Declination
Unknown
Sunlit
N/A
Visualization observer readout
Local Sidereal Time
21:35:20
Azimuth
Unknown
Elevation
Unknown
Doppler factor
Unknown
Orbital elements
Apogee altitude
160.267 km
Perigee altitude
157.135 km
Semi-major axis
6,536.838 km
Eccentricity
0.00024
Inclination
53.0341°
RAAN
156.5851°
Arg. of periapsis
296.7176°
True anomaly
160.82142°
Mean anomaly
160.8124°
Eccentric anomaly
160.81691°
Mean motion
4.10669 °/min
Orbital period
87.66 mins
BSTAR
0.000571
Loading maneuver chart data...
Computing Atmospheric mass density...

Documentation

Showing up to 5 results
|